| time (UTC) | temp F | wind direction | speed MPH | gust MPH | rain 1hr in | rain 24hr in | rain mn in | humidity % | barometer mb |
| 20260831024607 | 63 | 160 | 2.0 | 9.0 | 0.00 | 0.00 | 0.00 | 73 | 1011.1 |
| 20260831023110 | 65 | 205 | 3.0 | 11.0 | 0.00 | 0.00 | 0.00 | 70 | 1011.1 |
| 20260831021609 | 66 | 220 | 3.0 | 8.0 | 0.00 | 0.00 | 0.00 | 68 | 1011.0 |
| 20260831020112 | 68 | 169 | 4.0 | 10.0 | 0.00 | 0.00 | 0.00 | 65 | 1011.1 |
| 20260831014607 | 70 | 182 | 3.0 | 9.0 | 0.00 | 0.00 | 0.00 | 62 | 1011.1 |
| 20260831013107 | 71 | 184 | 3.0 | 10.0 | 0.00 | 0.00 | 0.00 | 61 | 1011.2 |
| 20260831011606 | 72 | 126 | 4.0 | 11.0 | 0.00 | 0.00 | 0.00 | 59 | 1011.2 |
| 20260831010134 | 74 | 186 | 3.0 | 11.0 | 0.00 | 0.00 | 0.00 | 55 | 1011.1 |
| 20260831004614 | 76 | 169 | 4.0 | 10.0 | 0.00 | 0.00 | 0.00 | 52 | 1011.1 |
| 20260831003105 | 77 | 217 | 4.0 | 13.0 | 0.00 | 0.00 | 0.00 | 50 | 1011.3 |
| 20260831001604 | 79 | 253 | 4.0 | 11.0 | 0.00 | 0.00 | 0.00 | 48 | 1011.3 |
| 20260831000109 | 79 | 203 | 5.0 | 12.0 | 0.00 | 0.00 | 0.00 | 46 | 1011.4 |
| 20260830234612 | 79 | 236 | 4.0 | 12.0 | 0.00 | 0.00 | 0.00 | 47 | 1011.4 |
| 20260830233108 | 79 | 210 | 6.0 | 13.0 | 0.00 | 0.00 | 0.00 | 49 | 1011.4 |
| 20260830231604 | 80 | 256 | 5.0 | 12.0 | 0.00 | 0.00 | 0.00 | 49 | 1011.6 |
| 20260830230105 | 80 | 259 | 4.0 | 13.0 | 0.00 | 0.00 | 0.00 | 48 | 1011.5 |
| 20260830224605 | 81 | 277 | 5.0 | 13.0 | 0.00 | 0.00 | 0.00 | 47 | 1011.6 |
| 20260830223104 | 81 | 290 | 5.0 | 11.0 | 0.00 | 0.00 | 0.00 | 46 | 1011.7 |
| 20260830221608 | 82 | 232 | 5.0 | 13.0 | 0.00 | 0.00 | 0.00 | 46 | 1011.8 |
| 20260830220112 | 81 | 280 | 5.0 | 11.0 | 0.00 | 0.00 | 0.00 | 46 | 1011.9 |
| 20260830214604 | 80 | 292 | 7.0 | 13.0 | 0.00 | 0.00 | 0.00 | 48 | 1012.0 |
| 20260830213107 | 81 | 346 | 6.0 | 13.0 | 0.00 | 0.00 | 0.00 | 48 | 1012.3 |
| 20260830211604 | 82 | 166 | 6.0 | 11.0 | 0.00 | 0.00 | 0.00 | 47 | 1012.5 |
| 20260830210106 | 81 | 283 | 3.0 | 8.0 | 0.00 | 0.00 | 0.00 | 48 | 1012.4 |
| 20260830204619 | 81 | 248 | 2.0 | 6.0 | 0.00 | 0.00 | 0.00 | 48 | 1012.5 |
| 20260830203103 | 80 | 271 | 1.0 | 8.0 | 0.00 | 0.00 | 0.00 | 49 | 1012.7 |
| 20260830201630 | 79 | 176 | 2.0 | 7.0 | 0.00 | 0.00 | 0.00 | 51 | 1012.9 |
| 20260830200105 | 77 | 344 | 1.0 | 8.0 | 0.00 | 0.00 | 0.00 | 53 | 1013.1 |
| 20260830194608 | 77 | 172 | 2.0 | 9.0 | 0.00 | 0.00 | 0.00 | 54 | 1013.2 |
| 20260830193108 | 76 | 0 | 2.0 | 5.0 | 0.00 | 0.00 | 0.00 | 54 | 1013.3 |
| 20260830191631 | 75 | 287 | 3.0 | 6.0 | 0.00 | 0.00 | 0.00 | 57 | 1013.5 |
| 20260830190115 | 73 | 150 | 2.0 | 7.0 | 0.00 | 0.00 | 0.00 | 59 | 1013.6 |
| 20260830184604 | 72 | 151 | 1.0 | 7.0 | 0.00 | 0.00 | 0.00 | 60 | 1013.8 |
| 20260830183102 | 71 | 0 | 2.0 | 5.0 | 0.00 | 0.00 | 0.00 | 61 | 1013.8 |
| 20260830181604 | 69 | 295 | 2.0 | 5.0 | 0.00 | 0.00 | 0.00 | 63 | 1013.9 |
| 20260830174608 | 68 | 298 | 0.0 | 5.0 | 0.00 | 0.00 | 0.00 | 67 | 1014.0 |
| 20260830173108 | 66 | 271 | 2.0 | 6.0 | 0.00 | 0.00 | 0.00 | 69 | 1014.1 |
| 20260830171603 | 66 | 257 | 1.0 | 4.0 | 0.00 | 0.00 | 0.00 | 70 | 1014.1 |
| 20260830170110 | 66 | 279 | 1.0 | 4.0 | 0.00 | 0.00 | 0.00 | 70 | 1014.0 |
| 20260830164600 | 65 | 224 | 1.0 | 4.0 | 0.00 | 0.00 | 0.00 | 71 | 1014.0 |
| 20260830163105 | 62 | 0 | 0.0 | 3.0 | 0.00 | 0.00 | 0.00 | 76 | 1014.0 |
| 20260830161612 | 61 | 0 | 0.0 | 2.0 | 0.00 | 0.00 | 0.00 | 76 | 1014.0 |
| 20260830160107 | 61 | 0 | 0.0 | 2.0 | 0.00 | 0.00 | 0.00 | 75 | 1014.0 |
| 20260830154609 | 60 | 0 | 0.0 | 0.0 | 0.00 | 0.00 | 0.00 | 78 | 1014.1 |
| 20260830153103 | 57 | 0 | 0.0 | 2.0 | 0.00 | 0.00 | 0.00 | 83 | 1014.2 |
| 20260830151601 | 56 | 0 | 0.0 | 2.0 | 0.00 | 0.00 | 0.00 | 85 | 1014.2 |
| 20260830150110 | 54 | 0 | 0.0 | 0.0 | 0.00 | 0.00 | 0.00 | 86 | 1014.0 |
| 20260830144612 | 53 | 0 | 0.0 | 0.0 | 0.00 | 0.00 | 0.00 | 87 | 1014.0 |
| 20260830143105 | 52 | 0 | 0.0 | 1.0 | 0.00 | 0.00 | 0.00 | 88 | 1013.9 |
| 20260830141605 | 51 | 0 | 0.0 | 0.0 | 0.00 | 0.00 | 0.00 | 89 | 1013.7 |
| 20260830140109 | 51 | 0 | 0.0 | 0.0 | 0.00 | 0.00 | 0.00 | 89 | 1013.5 |
| 20260830134604 | 51 | 0 | 0.0 | 0.0 | 0.00 | 0.00 | 0.00 | 89 | 1013.4 |
| 20260830133109 | 51 | 0 | 0.0 | 0.0 | 0.00 | 0.00 | 0.00 | 89 | 1013.3 |
| 20260830131605 | 51 | 0 | 0.0 | 0.0 | 0.00 | 0.00 | 0.00 | 89 | 1013.1 |
| 20260830130119 | 51 | 0 | 0.0 | 0.0 | 0.00 | 0.00 | 0.00 | 89 | 1013.0 |
| 20260830124605 | 51 | 0 | 0.0 | 0.0 | 0.00 | 0.00 | 0.00 | 89 | 1013.0 |
| 20260830123104 | 52 | 0 | 0.0 | 0.0 | 0.00 | 0.00 | 0.00 | 88 | 1012.9 |
| 20260830121603 | 52 | 0 | 0.0 | 0.0 | 0.00 | 0.00 | 0.00 | 88 | 1012.9 |
| 20260830120119 | 52 | 0 | 0.0 | 0.0 | 0.00 | 0.00 | 0.00 | 87 | 1012.8 |
| 20260830114605 | 52 | 0 | 0.0 | 0.0 | 0.00 | 0.00 | 0.00 | 87 | 1012.9 |
| 20260830113059 | 53 | 0 | 0.0 | 1.0 | 0.00 | 0.00 | 0.00 | 87 | 1012.8 |
| 20260830111601 | 53 | 0 | 0.0 | 0.0 | 0.00 | 0.00 | 0.00 | 86 | 1012.8 |
| 20260830104606 | 54 | 193 | 0.0 | 0.0 | 0.00 | 0.00 | 0.00 | 85 | 1012.8 |
| 20260830103102 | 55 | 0 | 0.0 | 0.0 | 0.00 | 0.00 | 0.00 | 85 | 1012.8 |
| 20260830101625 | 55 | 0 | 0.0 | 0.0 | 0.00 | 0.00 | 0.00 | 84 | 1012.8 |
| 20260830100107 | 55 | 0 | 0.0 | 2.0 | 0.00 | 0.00 | 0.00 | 84 | 1012.9 |
| 20260830094602 | 56 | 0 | 0.0 | 3.0 | 0.00 | 0.00 | 0.00 | 83 | 1012.8 |
| 20260830093104 | 56 | 184 | 0.0 | 3.0 | 0.00 | 0.00 | 0.00 | 83 | 1012.7 |
| 20260830091608 | 56 | 165 | 1.0 | 5.0 | 0.00 | 0.00 | 0.00 | 83 | 1012.6 |
| 20260830090109 | 57 | 0 | 0.0 | 4.0 | 0.00 | 0.00 | 0.00 | 82 | 1012.7 |
| 20260830084608 | 57 | 0 | 1.0 | 5.0 | 0.00 | 0.00 | 0.00 | 82 | 1012.6 |
| 20260830083109 | 57 | 175 | 1.0 | 5.0 | 0.00 | 0.00 | 0.00 | 82 | 1012.8 |
| 20260830081604 | 57 | 0 | 0.0 | 2.0 | 0.00 | 0.00 | 0.00 | 82 | 1012.8 |
| 20260830080100 | 58 | 139 | 0.0 | 2.0 | 0.00 | 0.00 | 0.00 | 82 | 1012.9 |
| 20260830074605 | 58 | 0 | 0.0 | 1.0 | 0.00 | 0.00 | 0.00 | 81 | 1012.9 |
| 20260830073101 | 58 | 202 | 0.0 | 2.0 | 0.00 | 0.00 | 0.00 | 80 | 1012.9 |
| 20260830071611 | 58 | 0 | 0.0 | 5.0 | 0.00 | 0.00 | 0.00 | 80 | 1013.0 |
| 20260830070115 | 59 | 0 | 0.0 | 5.0 | 0.00 | 0.00 | 0.00 | 79 | 1012.9 |
| 20260830064602 | 59 | 0 | 0.0 | 5.0 | 0.00 | 0.00 | 0.00 | 79 | 1012.9 |
| 20260830063108 | 59 | 171 | 1.0 | 4.0 | 0.00 | 0.00 | 0.00 | 78 | 1012.9 |
| 20260830061605 | 60 | 200 | 2.0 | 5.0 | 0.00 | 0.00 | 0.00 | 76 | 1013.0 |
| 20260830060107 | 61 | 203 | 1.0 | 5.0 | 0.00 | 0.00 | 0.00 | 75 | 1013.0 |
| 20260830054605 | 61 | 176 | 0.0 | 3.0 | 0.00 | 0.00 | 0.00 | 74 | 1013.0 |
| 20260830053058 | 62 | 168 | 0.0 | 5.0 | 0.00 | 0.00 | 0.00 | 73 | 1013.0 |
| 20260830051610 | 62 | 209 | 1.0 | 4.0 | 0.00 | 0.00 | 0.00 | 71 | 1013.0 |
| 20260830050116 | 63 | 214 | 2.0 | 6.0 | 0.00 | 0.00 | 0.00 | 70 | 1013.0 |
| 20260830044614 | 64 | 173 | 1.0 | 6.0 | 0.00 | 0.00 | 0.00 | 68 | 1013.0 |
| 20260830043103 | 65 | 183 | 1.0 | 5.0 | 0.00 | 0.00 | 0.00 | 66 | 1012.9 |
| 20260830041611 | 66 | 0 | 1.0 | 5.0 | 0.00 | 0.00 | 0.00 | 65 | 1012.8 |
| 20260830040116 | 67 | 193 | 2.0 | 5.0 | 0.00 | 0.00 | 0.00 | 63 | 1012.7 |
| 20260830034606 | 68 | 197 | 1.0 | 6.0 | 0.00 | 0.00 | 0.00 | 61 | 1012.3 |
| 20260830033112 | 69 | 0 | 1.0 | 6.0 | 0.00 | 0.00 | 0.00 | 60 | 1012.0 |
| 20260830031616 | 70 | 193 | 1.0 | 9.0 | 0.00 | 0.00 | 0.00 | 59 | 1011.9 |
| 20260830030111 | 71 | 199 | 2.0 | 10.0 | 0.00 | 0.00 | 0.00 | 57 | 1011.7 |